Year,Month,Day,Hour,Minute,Value (Times are PST for windspeed in km/hr)
2006,02,01,00,00,12.60
2006,02,01,00,01,12.10
2006,02,01,00,02,7.20
2006,02,01,00,03,9.90
2006,02,01,00,04,4.90
2006,02,01,00,05,13.70
2006,02,01,00,06,9.90
2006,02,01,00,07,10.60
2006,02,01,00,08,10.10
2006,02,01,00,09,7.70
2006,02,01,00,10,11.50
2006,02,01,00,11,10.40
2006,02,01,00,12,12.90
2006,02,01,00,13,10.10
2006,02,01,00,14,9.10
2006,02,01,00,15,14.90
2006,02,01,00,16,10.60
2006,02,01,00,17,18.10
2006,02,01,00,18,17.00
2006,02,01,00,19,10.00
2006,02,01,00,20,18.10
2006,02,01,00,21,9.00
2006,02,01,00,22,8.90
2006,02,01,00,23,20.60
2006,02,01,00,24,16.20
2006,02,01,00,25,15.80
2006,02,01,00,26,11.20
2006,02,01,00,27,17.80
2006,02,01,00,28,10.00
2006,02,01,00,29,9.90
2006,02,01,00,30,23.90
2006,02,01,00,31,14.70
2006,02,01,00,32,11.30
2006,02,01,00,33,13.40
2006,02,01,00,34,20.10
2006,02,01,00,35,14.10
2006,02,01,00,36,13.20
2006,02,01,00,37,16.10
2006,02,01,00,38,8.70
2006,02,01,00,39,15.20
2006,02,01,00,40,19.00
2006,02,01,00,41,11.50
2006,02,01,00,42,13.40
2006,02,01,00,43,19.90
2006,02,01,00,44,23.90
2006,02,01,00,45,13.20
2006,02,01,00,46,20.90
2006,02,01,00,47,11.70
2006,02,01,00,48,11.40
2006,02,01,00,49,20.30
2006,02,01,00,50,19.20
2006,02,01,00,51,4.60
2006,02,01,00,52,12.50
2006,02,01,00,53,13.30
2006,02,01,00,54,19.00
2006,02,01,00,55,20.80
2006,02,01,00,56,9.40
2006,02,01,00,57,16.30
2006,02,01,00,58,19.70
2006,02,01,00,59,15.40
2006,02,01,01,00,15.20
2006,02,01,01,01,17.50
2006,02,01,01,02,16.50
2006,02,01,01,03,14.20
2006,02,01,01,04,19.40
2006,02,01,01,05,19.00
2006,02,01,01,06,15.90
2006,02,01,01,07,15.50
2006,02,01,01,08,12.50
2006,02,01,01,09,20.50
2006,02,01,01,10,18.40
2006,02,01,01,11,9.40
2006,02,01,01,12,18.10
2006,02,01,01,13,15.20
2006,02,01,01,14,19.90
2006,02,01,01,15,19.60
2006,02,01,01,16,23.70
2006,02,01,01,17,26.70
2006,02,01,01,18,22.50
2006,02,01,01,19,22.70
2006,02,01,01,20,23.90
2006,02,01,01,21,20.30
2006,02,01,01,22,14.70
2006,02,01,01,23,15.30
2006,02,01,01,24,14.30
2006,02,01,01,25,14.00
2006,02,01,01,26,16.30
2006,02,01,01,27,14.30
2006,02,01,01,28,9.00
2006,02,01,01,29,3.80
2006,02,01,01,30,8.00
2006,02,01,01,31,13.60
2006,02,01,01,32,6.90
2006,02,01,01,33,10.50
2006,02,01,01,34,17.10
2006,02,01,01,35,11.60
2006,02,01,01,36,10.40
2006,02,01,01,37,14.40
2006,02,01,01,38,6.60
2006,02,01,01,39,14.70
2006,02,01,01,40,14.50
2006,02,01,01,41,14.90
2006,02,01,01,42,21.10
2006,02,01,01,43,13.30
2006,02,01,01,44,6.50
2006,02,01,01,45,10.70
2006,02,01,01,46,15.60
2006,02,01,01,47,15.30
2006,02,01,01,48,12.70
2006,02,01,01,49,22.10
2006,02,01,01,50,17.70
2006,02,01,01,51,11.90
2006,02,01,01,52,14.50
2006,02,01,01,53,15.10
2006,02,01,01,54,13.30
2006,02,01,01,55,15.20
2006,02,01,01,56,7.20
2006,02,01,01,57,11.10
2006,02,01,01,58,22.80
2006,02,01,01,59,19.40
2006,02,01,02,00,9.00
2006,02,01,02,01,17.00
2006,02,01,02,02,23.30
2006,02,01,02,03,15.20
2006,02,01,02,04,19.30
2006,02,01,02,05,15.70
2006,02,01,02,06,13.00
2006,02,01,02,07,17.40
2006,02,01,02,08,20.30
2006,02,01,02,09,16.90
2006,02,01,02,10,16.40
2006,02,01,02,11,11.00
2006,02,01,02,12,15.50
2006,02,01,02,13,17.60
2006,02,01,02,14,18.30
2006,02,01,02,15,16.90
2006,02,01,02,16,23.70
2006,02,01,02,17,20.40
2006,02,01,02,18,16.80
2006,02,01,02,19,13.70
2006,02,01,02,20,17.90
2006,02,01,02,21,17.10
2006,02,01,02,22,19.50
2006,02,01,02,23,13.30
2006,02,01,02,24,15.40
2006,02,01,02,25,20.10
2006,02,01,02,26,16.50
2006,02,01,02,27,13.90
2006,02,01,02,28,21.80
2006,02,01,02,29,20.20
2006,02,01,02,30,15.00
2006,02,01,02,31,9.40
2006,02,01,02,32,18.10
2006,02,01,02,33,20.00
2006,02,01,02,34,10.10
2006,02,01,02,35,16.40
2006,02,01,02,36,6.60
2006,02,01,02,37,21.10
2006,02,01,02,38,19.70
2006,02,01,02,39,12.40
2006,02,01,02,40,14.70
2006,02,01,02,41,24.20
2006,02,01,02,42,16.80
2006,02,01,02,43,12.10
2006,02,01,02,44,14.90
2006,02,01,02,45,7.50
2006,02,01,02,46,11.10
2006,02,01,02,47,10.30
2006,02,01,02,48,14.20
2006,02,01,02,49,13.80
2006,02,01,02,50,6.60
2006,02,01,02,51,12.40
2006,02,01,02,52,10.50
2006,02,01,02,53,13.10
2006,02,01,02,54,15.10
2006,02,01,02,55,20.70
2006,02,01,02,56,19.00
2006,02,01,02,57,17.00
2006,02,01,02,58,6.00
2006,02,01,02,59,16.20
2006,02,01,03,00,9.40
2006,02,01,03,01,16.00
2006,02,01,03,02,15.50
2006,02,01,03,03,15.00
2006,02,01,03,04,4.80
2006,02,01,03,05,19.30
2006,02,01,03,06,7.30
2006,02,01,03,07,11.90
2006,02,01,03,08,18.30
2006,02,01,03,09,9.50
2006,02,01,03,10,7.30
2006,02,01,03,11,2.10
2006,02,01,03,12,9.00
2006,02,01,03,13,8.90
2006,02,01,03,14,9.20
2006,02,01,03,15,9.10
2006,02,01,03,16,12.50
2006,02,01,03,17,9.20
2006,02,01,03,18,9.50
2006,02,01,03,19,11.80
2006,02,01,03,20,19.60
2006,02,01,03,21,10.90
2006,02,01,03,22,6.40
2006,02,01,03,23,5.90
2006,02,01,03,24,2.90
2006,02,01,03,25,3.50
2006,02,01,03,26,2.50
2006,02,01,03,27,6.50
2006,02,01,03,28,6.20
2006,02,01,03,29,6.40
2006,02,01,03,30,16.70
2006,02,01,03,31,19.70
2006,02,01,03,32,17.50
2006,02,01,03,33,13.50
2006,02,01,03,34,11.80
2006,02,01,03,35,12.10
2006,02,01,03,36,11.60
2006,02,01,03,37,7.80
2006,02,01,03,38,5.40
2006,02,01,03,39,6.00
2006,02,01,03,40,10.20
2006,02,01,03,41,12.50
2006,02,01,03,42,8.30
2006,02,01,03,43,23.80
2006,02,01,03,44,20.30
2006,02,01,03,45,12.70
2006,02,01,03,46,20.00
2006,02,01,03,47,14.70
2006,02,01,03,48,18.10
2006,02,01,03,49,9.00
2006,02,01,03,50,6.20
2006,02,01,03,51,2.50
2006,02,01,03,52,10.50
2006,02,01,03,53,13.40
2006,02,01,03,54,16.80
2006,02,01,03,55,11.10
2006,02,01,03,56,10.00
2006,02,01,03,57,10.00
2006,02,01,03,58,10.80
2006,02,01,03,59,7.30
2006,02,01,04,00,6.40
2006,02,01,04,01,2.80
2006,02,01,04,02,6.40
2006,02,01,04,03,8.20
2006,02,01,04,04,8.20
2006,02,01,04,05,13.90
2006,02,01,04,06,6.30
2006,02,01,04,07,2.90
2006,02,01,04,08,6.60
2006,02,01,04,09,17.40
2006,02,01,04,10,14.90
2006,02,01,04,11,22.00
2006,02,01,04,12,17.40
2006,02,01,04,13,12.50
2006,02,01,04,14,10.50
2006,02,01,04,15,14.60
2006,02,01,04,16,21.40
2006,02,01,04,17,8.50
2006,02,01,04,18,10.10
2006,02,01,04,19,12.10
2006,02,01,04,20,8.00
2006,02,01,04,21,9.60
2006,02,01,04,22,11.80
2006,02,01,04,23,12.70
2006,02,01,04,24,8.40
2006,02,01,04,25,6.20
2006,02,01,04,26,10.70
2006,02,01,04,27,17.40
2006,02,01,04,28,11.70
2006,02,01,04,29,17.60
2006,02,01,04,30,17.80
2006,02,01,04,31,24.00
2006,02,01,04,32,17.20
2006,02,01,04,33,13.30
2006,02,01,04,34,18.10
2006,02,01,04,35,18.60
2006,02,01,04,36,18.40
2006,02,01,04,37,23.50
2006,02,01,04,38,29.80
2006,02,01,04,39,21.40
2006,02,01,04,40,14.90
2006,02,01,04,41,25.80
2006,02,01,04,42,19.50
2006,02,01,04,43,22.00
2006,02,01,04,44,21.00
2006,02,01,04,45,16.80
2006,02,01,04,46,16.30
2006,02,01,04,47,23.20
2006,02,01,04,48,24.70
2006,02,01,04,49,22.30
2006,02,01,04,50,20.40
2006,02,01,04,51,18.20
2006,02,01,04,52,19.70
2006,02,01,04,53,20.00
2006,02,01,04,54,22.20
2006,02,01,04,55,16.50
2006,02,01,04,56,13.40
2006,02,01,04,57,20.90
2006,02,01,04,58,24.90
2006,02,01,04,59,18.90
2006,02,01,05,00,19.90
2006,02,01,05,01,17.10
2006,02,01,05,02,15.70
2006,02,01,05,03,20.40
2006,02,01,05,04,20.50
2006,02,01,05,05,21.60
2006,02,01,05,06,29.00
2006,02,01,05,07,25.70
2006,02,01,05,08,13.70
2006,02,01,05,09,12.10
2006,02,01,05,10,12.60
2006,02,01,05,11,28.80
2006,02,01,05,12,21.40
2006,02,01,05,13,21.50
2006,02,01,05,14,25.30
2006,02,01,05,15,27.60
2006,02,01,05,16,23.40
2006,02,01,05,17,17.90
2006,02,01,05,18,17.20
2006,02,01,05,19,24.10
2006,02,01,05,20,18.60
2006,02,01,05,21,20.30
2006,02,01,05,22,20.10
2006,02,01,05,23,28.50
2006,02,01,05,24,15.00
2006,02,01,05,25,16.20
2006,02,01,05,26,17.80
2006,02,01,05,27,27.60
2006,02,01,05,28,34.10
2006,02,01,05,29,32.80
2006,02,01,05,30,37.40
2006,02,01,05,31,22.10
2006,02,01,05,32,22.20
2006,02,01,05,33,31.10
2006,02,01,05,34,31.70
2006,02,01,05,35,23.70
2006,02,01,05,36,22.10
2006,02,01,05,37,31.90
2006,02,01,05,38,32.30
2006,02,01,05,39,25.00
2006,02,01,05,40,30.20
2006,02,01,05,41,30.60
2006,02,01,05,42,21.10
2006,02,01,05,43,18.30
2006,02,01,05,44,24.80
2006,02,01,05,45,26.00
2006,02,01,05,46,26.60
2006,02,01,05,47,28.70
2006,02,01,05,48,24.60
2006,02,01,05,49,27.50
2006,02,01,05,50,22.20
2006,02,01,05,51,26.70
2006,02,01,05,52,27.60
2006,02,01,05,53,22.80
2006,02,01,05,54,16.40
2006,02,01,05,55,20.90
2006,02,01,05,56,19.40
2006,02,01,05,57,22.90
2006,02,01,05,58,22.70
2006,02,01,05,59,26.20
2006,02,01,06,00,23.60
2006,02,01,06,01,31.40
2006,02,01,06,02,37.00
2006,02,01,06,03,25.30
2006,02,01,06,04,27.30
2006,02,01,06,05,22.80
2006,02,01,06,06,22.00
2006,02,01,06,07,18.50
2006,02,01,06,08,21.10
2006,02,01,06,09,19.00
2006,02,01,06,10,23.30
2006,02,01,06,11,23.90
2006,02,01,06,12,24.30
2006,02,01,06,13,30.60
2006,02,01,06,14,19.40
2006,02,01,06,15,28.50
2006,02,01,06,16,26.00
2006,02,01,06,17,27.30
2006,02,01,06,18,19.50
2006,02,01,06,19,19.40
2006,02,01,06,20,20.80
2006,02,01,06,21,29.00
2006,02,01,06,22,25.00
2006,02,01,06,23,16.50
2006,02,01,06,24,17.80
2006,02,01,06,25,26.60
2006,02,01,06,26,26.90
2006,02,01,06,27,21.30
2006,02,01,06,28,21.80
2006,02,01,06,29,19.90
2006,02,01,06,30,26.60
2006,02,01,06,31,28.40
2006,02,01,06,32,26.70
2006,02,01,06,33,25.80
2006,02,01,06,34,26.80
2006,02,01,06,35,22.00
2006,02,01,06,36,21.70
2006,02,01,06,37,18.50
2006,02,01,06,38,30.40
2006,02,01,06,39,19.40
2006,02,01,06,40,14.60
2006,02,01,06,41,26.50
2006,02,01,06,42,26.50
2006,02,01,06,43,14.80
2006,02,01,06,44,21.00
2006,02,01,06,45,19.00
2006,02,01,06,46,17.30
2006,02,01,06,47,19.70
2006,02,01,06,48,25.70
2006,02,01,06,49,20.00
2006,02,01,06,50,22.20
2006,02,01,06,51,23.30
2006,02,01,06,52,25.20
2006,02,01,06,53,20.60
2006,02,01,06,54,25.40
2006,02,01,06,55,32.10
2006,02,01,06,56,22.50
2006,02,01,06,57,25.70
2006,02,01,06,58,24.10
2006,02,01,06,59,22.50
2006,02,01,07,00,16.90
2006,02,01,07,01,19.30
2006,02,01,07,02,29.00
2006,02,01,07,03,20.10
2006,02,01,07,04,20.60
2006,02,01,07,05,23.00
2006,02,01,07,06,21.70
2006,02,01,07,07,20.00
2006,02,01,07,08,16.50
2006,02,01,07,09,17.80
2006,02,01,07,10,21.60
2006,02,01,07,11,19.20
2006,02,01,07,12,22.30
2006,02,01,07,13,16.90
2006,02,01,07,14,21.90
2006,02,01,07,15,14.40
2006,02,01,07,16,17.20
2006,02,01,07,17,24.10
2006,02,01,07,18,15.30
2006,02,01,07,19,17.60
2006,02,01,07,20,21.20
2006,02,01,07,21,18.90
2006,02,01,07,22,20.90
2006,02,01,07,23,17.90
2006,02,01,07,24,24.50
2006,02,01,07,25,19.60
2006,02,01,07,26,23.80
2006,02,01,07,27,28.50
2006,02,01,07,28,20.10
2006,02,01,07,29,13.00
2006,02,01,07,30,25.90
2006,02,01,07,31,15.80
2006,02,01,07,32,16.40
2006,02,01,07,33,17.90
2006,02,01,07,34,22.30
2006,02,01,07,35,20.40
2006,02,01,07,36,8.30
2006,02,01,07,37,14.30
2006,02,01,07,38,16.70
2006,02,01,07,39,15.80
2006,02,01,07,40,12.30
2006,02,01,07,41,16.00
2006,02,01,07,42,11.70
2006,02,01,07,43,14.30
2006,02,01,07,44,14.60
2006,02,01,07,45,15.20
2006,02,01,07,46,14.80
2006,02,01,07,47,15.50
2006,02,01,07,48,12.10
2006,02,01,07,49,19.50
2006,02,01,07,50,16.30
2006,02,01,07,51,12.70
2006,02,01,07,52,14.60
2006,02,01,07,53,23.60
2006,02,01,07,54,16.30
2006,02,01,07,55,12.40
2006,02,01,07,56,22.80
2006,02,01,07,57,15.70
2006,02,01,07,58,17.00
2006,02,01,07,59,10.40
2006,02,01,08,00,15.60
2006,02,01,08,01,17.20
2006,02,01,08,02,16.30
2006,02,01,08,03,9.80
2006,02,01,08,04,15.00
2006,02,01,08,05,14.00
2006,02,01,08,06,6.80
2006,02,01,08,07,4.70
2006,02,01,08,08,7.60
2006,02,01,08,09,8.10
2006,02,01,08,10,4.80
2006,02,01,08,11,9.50
2006,02,01,08,12,8.30
2006,02,01,08,13,8.60
2006,02,01,08,14,10.60
2006,02,01,08,15,8.70
2006,02,01,08,16,7.60
2006,02,01,08,17,4.00
2006,02,01,08,18,4.60
2006,02,01,08,19,3.20
2006,02,01,08,20,12.00
2006,02,01,08,21,16.90
2006,02,01,08,22,12.70
2006,02,01,08,23,13.00
2006,02,01,08,24,12.80
2006,02,01,08,25,18.50
2006,02,01,08,26,20.20
2006,02,01,08,27,17.40
2006,02,01,08,28,14.40
2006,02,01,08,29,14.00
2006,02,01,08,30,7.20
2006,02,01,08,31,12.10
2006,02,01,08,32,4.50
2006,02,01,08,33,5.20
2006,02,01,08,34,9.40
2006,02,01,08,35,10.50
2006,02,01,08,36,6.90
2006,02,01,08,37,7.90
2006,02,01,08,38,20.60
2006,02,01,08,39,12.70
2006,02,01,08,40,12.90
2006,02,01,08,41,11.60
2006,02,01,08,42,10.40
2006,02,01,08,43,13.80
2006,02,01,08,44,13.10
2006,02,01,08,45,16.90
2006,02,01,08,46,9.30
2006,02,01,08,47,7.60
2006,02,01,08,48,5.50
2006,02,01,08,49,15.00
2006,02,01,08,50,12.90
2006,02,01,08,51,13.50
2006,02,01,08,52,21.30
2006,02,01,08,53,16.60
2006,02,01,08,54,23.80
2006,02,01,08,55,18.60
2006,02,01,08,56,17.40
2006,02,01,08,57,17.40
2006,02,01,08,58,11.20
2006,02,01,08,59,11.30
2006,02,01,09,00,14.00
2006,02,01,09,01,11.40
2006,02,01,09,02,7.70
2006,02,01,09,03,5.90
2006,02,01,09,04,12.20
2006,02,01,09,05,14.50
2006,02,01,09,06,6.10
2006,02,01,09,07,3.90
2006,02,01,09,08,2.50
2006,02,01,09,09,7.60
2006,02,01,09,10,8.00
2006,02,01,09,11,8.50
2006,02,01,09,12,9.00
2006,02,01,09,13,10.90
2006,02,01,09,14,6.40
2006,02,01,09,15,12.70
2006,02,01,09,16,7.90
2006,02,01,09,17,8.60
2006,02,01,09,18,6.90
2006,02,01,09,19,6.80
2006,02,01,09,20,5.80
2006,02,01,09,21,10.00
2006,02,01,09,22,12.50
2006,02,01,09,23,6.20
2006,02,01,09,24,7.20
2006,02,01,09,25,14.00
2006,02,01,09,26,7.10
2006,02,01,09,27,6.30
2006,02,01,09,28,11.70
2006,02,01,09,29,17.10
2006,02,01,09,30,15.40
2006,02,01,09,31,15.70
2006,02,01,09,32,12.50
2006,02,01,09,33,15.10
2006,02,01,09,34,9.40
2006,02,01,09,35,10.90
2006,02,01,09,36,7.70
2006,02,01,09,37,6.20
2006,02,01,09,38,2.90
2006,02,01,09,39,5.30
2006,02,01,09,40,9.90
2006,02,01,09,41,4.50
2006,02,01,09,42,5.10
2006,02,01,09,43,8.60
2006,02,01,09,44,8.50
2006,02,01,09,45,12.20
2006,02,01,09,46,7.70
2006,02,01,09,47,3.40
2006,02,01,09,48,1.00
2006,02,01,09,49,5.50
2006,02,01,09,50,3.20
2006,02,01,09,51,2.60
2006,02,01,09,52,3.40
2006,02,01,09,53,9.30
2006,02,01,09,54,7.00
2006,02,01,09,55,7.80
2006,02,01,09,56,11.40
2006,02,01,09,57,9.70
2006,02,01,09,58,13.20
2006,02,01,09,59,12.70
2006,02,01,10,00,6.90
2006,02,01,10,01,14.60
2006,02,01,10,02,9.80
2006,02,01,10,03,7.60
2006,02,01,10,04,16.10
2006,02,01,10,05,10.10
2006,02,01,10,06,7.40
2006,02,01,10,07,5.70
2006,02,01,10,08,12.70
2006,02,01,10,09,14.50
2006,02,01,10,10,11.10
2006,02,01,10,11,14.40
2006,02,01,10,12,12.20
2006,02,01,10,13,14.30
2006,02,01,10,14,21.20
2006,02,01,10,15,10.70
2006,02,01,10,16,14.00
2006,02,01,10,17,19.80
2006,02,01,10,18,17.50
2006,02,01,10,19,14.30
2006,02,01,10,20,14.60
2006,02,01,10,21,15.50
2006,02,01,10,22,18.10
2006,02,01,10,23,18.30
2006,02,01,10,24,20.00
2006,02,01,10,25,10.50
2006,02,01,10,26,6.00
2006,02,01,10,27,9.70
2006,02,01,10,28,5.70
2006,02,01,10,29,5.40
2006,02,01,10,30,14.50
2006,02,01,10,31,10.40
2006,02,01,10,32,13.90
2006,02,01,10,33,12.40
2006,02,01,10,34,13.40
2006,02,01,10,35,13.90
2006,02,01,10,36,12.10
2006,02,01,10,37,11.70
2006,02,01,10,38,13.90
2006,02,01,10,39,9.60
2006,02,01,10,40,14.30
2006,02,01,10,41,17.60
2006,02,01,10,42,13.70
2006,02,01,10,43,14.60
2006,02,01,10,44,12.50
2006,02,01,10,45,8.60
2006,02,01,10,46,6.00
2006,02,01,10,47,15.40
2006,02,01,10,48,8.60
2006,02,01,10,49,9.30
2006,02,01,10,50,12.50
2006,02,01,10,51,15.10
2006,02,01,10,52,14.60
2006,02,01,10,53,9.60
2006,02,01,10,54,11.10
2006,02,01,10,55,12.70
2006,02,01,10,56,15.10
2006,02,01,10,57,12.40
2006,02,01,10,58,10.40
2006,02,01,10,59,13.40
2006,02,01,11,00,15.20
2006,02,01,11,01,14.60
2006,02,01,11,02,16.40
2006,02,01,11,03,17.10
2006,02,01,11,04,15.20
2006,02,01,11,05,7.50
2006,02,01,11,06,12.00
2006,02,01,11,07,9.20
2006,02,01,11,08,11.10
2006,02,01,11,09,10.10
2006,02,01,11,10,11.00
2006,02,01,11,11,14.00
2006,02,01,11,12,9.10
2006,02,01,11,13,19.80
2006,02,01,11,14,8.90
2006,02,01,11,15,5.90
2006,02,01,11,16,8.50
2006,02,01,11,17,18.40
2006,02,01,11,18,11.60
2006,02,01,11,19,15.20
2006,02,01,11,20,11.30
2006,02,01,11,21,10.50
2006,02,01,11,22,5.80
2006,02,01,11,23,6.40
2006,02,01,11,24,8.00
2006,02,01,11,25,9.70
2006,02,01,11,26,11.90
2006,02,01,11,27,17.20
2006,02,01,11,28,14.30
2006,02,01,11,29,12.50
2006,02,01,11,30,16.60
2006,02,01,11,31,6.00
2006,02,01,11,32,6.00
2006,02,01,11,33,11.30
2006,02,01,11,34,11.70
2006,02,01,11,35,9.30
2006,02,01,11,36,6.70
2006,02,01,11,37,9.40
2006,02,01,11,38,10.80
2006,02,01,11,39,9.40
2006,02,01,11,40,13.80
2006,02,01,11,41,5.50
2006,02,01,11,42,2.70
2006,02,01,11,43,4.10
2006,02,01,11,44,6.40
2006,02,01,11,45,10.40
2006,02,01,11,46,14.50
2006,02,01,11,47,12.60
2006,02,01,11,48,18.00
2006,02,01,11,49,9.10
2006,02,01,11,50,11.60
2006,02,01,11,51,12.70
2006,02,01,11,52,19.00
2006,02,01,11,53,18.70
2006,02,01,11,54,14.00
2006,02,01,11,55,16.60
2006,02,01,11,56,14.60
2006,02,01,11,57,12.80
2006,02,01,11,58,21.00
2006,02,01,11,59,12.50
2006,02,01,12,00,9.60
2006,02,01,12,01,12.10
2006,02,01,12,02,10.00
2006,02,01,12,03,8.30
2006,02,01,12,04,6.70
2006,02,01,12,05,12.30
2006,02,01,12,06,8.90
2006,02,01,12,07,9.30
2006,02,01,12,08,9.00
2006,02,01,12,09,7.60
2006,02,01,12,10,8.70
2006,02,01,12,11,9.10
2006,02,01,12,12,6.70
2006,02,01,12,13,9.70
2006,02,01,12,14,4.40
2006,02,01,12,15,13.20
2006,02,01,12,16,6.30
2006,02,01,12,17,7.30
2006,02,01,12,18,10.10
2006,02,01,12,19,12.40
2006,02,01,12,20,5.90
2006,02,01,12,21,4.30
2006,02,01,12,22,4.80
2006,02,01,12,23,0.50
2006,02,01,12,24,9.00
2006,02,01,12,25,4.30
2006,02,01,12,26,2.50
2006,02,01,12,27,2.20
2006,02,01,12,28,2.60
2006,02,01,12,29,4.50
2006,02,01,12,30,8.80
2006,02,01,12,31,5.10
2006,02,01,12,32,4.70
2006,02,01,12,33,3.20
2006,02,01,12,34,4.20
2006,02,01,12,35,5.70
2006,02,01,12,36,4.20
2006,02,01,12,37,5.50
2006,02,01,12,38,5.00
2006,02,01,12,39,2.90
2006,02,01,12,40,1.90
2006,02,01,12,41,1.70
2006,02,01,12,42,3.10
2006,02,01,12,43,5.20
2006,02,01,12,44,6.20
2006,02,01,12,45,2.30
2006,02,01,12,46,7.60
2006,02,01,12,47,0.70
2006,02,01,12,48,6.10
2006,02,01,12,49,3.80
2006,02,01,12,50,1.70
2006,02,01,12,51,0.20
2006,02,01,12,52,1.90
2006,02,01,12,53,4.60
2006,02,01,12,54,1.50
2006,02,01,12,55,0.70
2006,02,01,12,56,7.60
2006,02,01,12,57,4.60
2006,02,01,12,58,0.60
2006,02,01,12,59,2.10
2006,02,01,13,00,0.00
2006,02,01,13,01,0.50
2006,02,01,13,02,0.00
2006,02,01,13,03,0.30
2006,02,01,13,04,1.30
2006,02,01,13,05,1.20
2006,02,01,13,06,3.10
2006,02,01,13,07,1.50
2006,02,01,13,08,2.30
2006,02,01,13,09,3.40
2006,02,01,13,10,2.50
2006,02,01,13,11,0.50
2006,02,01,13,12,4.00
2006,02,01,13,13,1.90
2006,02,01,13,14,1.60
2006,02,01,13,15,1.20
2006,02,01,13,16,0.20
2006,02,01,13,17,0.20
2006,02,01,13,18,0.00
2006,02,01,13,19,0.00
2006,02,01,13,20,0.10
2006,02,01,13,21,0.40
2006,02,01,13,22,1.30
2006,02,01,13,23,2.00
2006,02,01,13,24,3.10
2006,02,01,13,25,0.80
2006,02,01,13,26,3.10
2006,02,01,13,27,1.10
2006,02,01,13,28,1.10
2006,02,01,13,29,1.50
2006,02,01,13,30,2.60
2006,02,01,13,31,3.80
2006,02,01,13,32,3.00
2006,02,01,13,33,1.40
2006,02,01,13,34,2.00
2006,02,01,13,35,2.00
2006,02,01,13,36,4.30
2006,02,01,13,37,2.80
2006,02,01,13,38,1.90
2006,02,01,13,39,3.70
2006,02,01,13,40,4.30
2006,02,01,13,41,3.10
2006,02,01,13,42,4.20
2006,02,01,13,43,1.90
2006,02,01,13,44,2.70
2006,02,01,13,45,6.40
2006,02,01,13,46,6.00
2006,02,01,13,47,5.50
2006,02,01,13,48,6.00
2006,02,01,13,49,3.40
2006,02,01,13,50,1.20
2006,02,01,13,51,1.30
2006,02,01,13,52,0.90
2006,02,01,13,53,3.20
2006,02,01,13,54,2.20
2006,02,01,13,55,1.80
2006,02,01,13,56,0.00
2006,02,01,13,57,0.10
2006,02,01,13,58,4.30
2006,02,01,13,59,4.00
2006,02,01,14,00,4.10
2006,02,01,14,01,5.70
2006,02,01,14,02,5.40
2006,02,01,14,03,3.60
2006,02,01,14,04,1.30
2006,02,01,14,05,2.90
2006,02,01,14,06,5.50
2006,02,01,14,07,3.40
2006,02,01,14,08,4.00
2006,02,01,14,09,5.00
2006,02,01,14,10,4.50
2006,02,01,14,11,0.50
2006,02,01,14,12,4.20
2006,02,01,14,13,6.90
2006,02,01,14,14,3.70
2006,02,01,14,15,5.00
2006,02,01,14,16,5.30
2006,02,01,14,17,8.10
2006,02,01,14,18,5.20
2006,02,01,14,19,4.30
2006,02,01,14,20,2.90
2006,02,01,14,21,4.80
2006,02,01,14,22,3.80
2006,02,01,14,23,1.40
2006,02,01,14,24,3.10
2006,02,01,14,25,1.30
2006,02,01,14,26,3.80
2006,02,01,14,27,3.70
2006,02,01,14,28,0.20
2006,02,01,14,29,0.00
2006,02,01,14,30,0.00
2006,02,01,14,31,2.20
2006,02,01,14,32,0.80
2006,02,01,14,33,1.90
2006,02,01,14,34,2.40
2006,02,01,14,35,4.20
2006,02,01,14,36,4.40
2006,02,01,14,37,5.20
2006,02,01,14,38,3.90
2006,02,01,14,39,5.80
2006,02,01,14,40,4.80
2006,02,01,14,41,4.70
2006,02,01,14,42,3.40
2006,02,01,14,43,1.40
2006,02,01,14,44,2.80
2006,02,01,14,45,2.60
2006,02,01,14,46,2.80
2006,02,01,14,47,3.20
2006,02,01,14,48,2.10
2006,02,01,14,49,3.90
2006,02,01,14,50,3.00
2006,02,01,14,51,2.90
2006,02,01,14,52,3.80
2006,02,01,14,53,5.00
2006,02,01,14,54,2.80
2006,02,01,14,55,2.70
2006,02,01,14,56,3.60
2006,02,01,14,57,4.30
2006,02,01,14,58,2.50
2006,02,01,14,59,3.20
2006,02,01,15,00,1.60
2006,02,01,15,01,1.20
2006,02,01,15,02,0.00
2006,02,01,15,03,0.30
2006,02,01,15,04,3.60
2006,02,01,15,05,3.60
2006,02,01,15,06,3.10
2006,02,01,15,07,0.70
2006,02,01,15,08,0.00
2006,02,01,15,09,0.00
2006,02,01,15,10,0.10
2006,02,01,15,11,2.50
2006,02,01,15,12,1.10
2006,02,01,15,13,1.80
2006,02,01,15,14,1.40
2006,02,01,15,15,1.50
2006,02,01,15,16,0.20
2006,02,01,15,17,0.70
2006,02,01,15,18,9.70
2006,02,01,15,19,11.20
2006,02,01,15,20,4.80
2006,02,01,15,21,3.10
2006,02,01,15,22,1.70
2006,02,01,15,23,2.00
2006,02,01,15,24,1.80
2006,02,01,15,25,1.10
2006,02,01,15,26,1.10
2006,02,01,15,27,2.70
2006,02,01,15,28,0.80
2006,02,01,15,29,1.70
2006,02,01,15,30,0.80
2006,02,01,15,31,0.00
2006,02,01,15,32,0.00
2006,02,01,15,33,0.40
2006,02,01,15,34,2.30
2006,02,01,15,35,1.10
2006,02,01,15,36,0.60
2006,02,01,15,37,0.10
2006,02,01,15,38,0.00
2006,02,01,15,39,0.20
2006,02,01,15,40,0.00
2006,02,01,15,41,0.20
2006,02,01,15,42,0.40
2006,02,01,15,43,2.30
2006,02,01,15,44,0.40
2006,02,01,15,45,0.70
2006,02,01,15,46,1.50
2006,02,01,15,47,0.20
2006,02,01,15,48,0.40
2006,02,01,15,49,0.20
2006,02,01,15,50,0.10
2006,02,01,15,51,0.00
2006,02,01,15,52,0.40
2006,02,01,15,53,0.30
2006,02,01,15,54,1.10
2006,02,01,15,55,1.00
2006,02,01,15,56,0.00
2006,02,01,15,57,0.00
2006,02,01,15,58,0.00
2006,02,01,15,59,0.00
2006,02,01,16,00,0.00
2006,02,01,16,01,0.10
2006,02,01,16,02,1.50
2006,02,01,16,03,0.00
2006,02,01,16,04,0.10
2006,02,01,16,05,1.00
2006,02,01,16,06,1.10
2006,02,01,16,07,0.50
2006,02,01,16,08,3.20
2006,02,01,16,09,0.20
2006,02,01,16,10,0.00
2006,02,01,16,11,2.30
2006,02,01,16,12,3.60
2006,02,01,16,13,2.90
2006,02,01,16,14,1.30
2006,02,01,16,15,1.90
2006,02,01,16,16,2.00
2006,02,01,16,17,1.50
2006,02,01,16,18,1.20
2006,02,01,16,19,0.80
2006,02,01,16,20,1.70
2006,02,01,16,21,0.80
2006,02,01,16,22,0.60
2006,02,01,16,23,0.20
2006,02,01,16,24,0.30
2006,02,01,16,25,0.00
2006,02,01,16,26,0.00
2006,02,01,16,27,1.50
2006,02,01,16,28,3.00
2006,02,01,16,29,3.10
2006,02,01,16,30,1.70
2006,02,01,16,31,2.40
2006,02,01,16,32,2.90
2006,02,01,16,33,3.40
2006,02,01,16,34,3.60
2006,02,01,16,35,3.40
2006,02,01,16,36,3.20
2006,02,01,16,37,3.10
2006,02,01,16,38,2.70
2006,02,01,16,39,3.60
2006,02,01,16,40,4.50
2006,02,01,16,41,3.40
2006,02,01,16,42,4.10
2006,02,01,16,43,2.60
2006,02,01,16,44,1.30
2006,02,01,16,45,1.10
2006,02,01,16,46,2.10
2006,02,01,16,47,2.70
2006,02,01,16,48,2.60
2006,02,01,16,49,3.30
2006,02,01,16,50,3.90
2006,02,01,16,51,3.70
2006,02,01,16,52,2.40
2006,02,01,16,53,3.70
2006,02,01,16,54,3.00
2006,02,01,16,55,3.80
2006,02,01,16,56,4.80
2006,02,01,16,57,2.60
2006,02,01,16,58,3.20
2006,02,01,16,59,4.60
2006,02,01,17,00,4.70
2006,02,01,17,01,5.30
2006,02,01,17,02,4.70
2006,02,01,17,03,3.60
2006,02,01,17,04,1.80
2006,02,01,17,05,1.70
2006,02,01,17,06,2.20
2006,02,01,17,07,0.80
2006,02,01,17,08,2.30
2006,02,01,17,09,2.90
2006,02,01,17,10,3.80
2006,02,01,17,11,3.10
2006,02,01,17,12,2.00
2006,02,01,17,13,0.90
2006,02,01,17,14,3.90
2006,02,01,17,15,2.40
2006,02,01,17,16,3.10
2006,02,01,17,17,1.10
2006,02,01,17,18,0.00
2006,02,01,17,19,0.00
2006,02,01,17,20,0.10
2006,02,01,17,21,1.00
2006,02,01,17,22,0.00
2006,02,01,17,23,0.20
2006,02,01,17,24,0.60
2006,02,01,17,25,2.90
2006,02,01,17,26,2.70
2006,02,01,17,27,0.40
2006,02,01,17,28,1.50
2006,02,01,17,29,2.70
2006,02,01,17,30,1.70
2006,02,01,17,31,1.80
2006,02,01,17,32,0.50
2006,02,01,17,33,1.00
2006,02,01,17,34,2.70
2006,02,01,17,35,2.80
2006,02,01,17,36,1.80
2006,02,01,17,37,0.70
2006,02,01,17,38,0.80
2006,02,01,17,39,0.00
2006,02,01,17,40,0.00
2006,02,01,17,41,0.10